Wetterdaten: Woche 20.01.14 - 26.01.14 (KW4)
Datum Zeit Temp. A. Feuchte A. Luftdruck Regen Wind Richtung ET UV Solar Taupunkt Windchill Windben
20.01.2014 00:00 6,2 C 91 % 1000,1 hPa 0,0 l/m 8,3 km/h (2 Bft) O-NO 0,000 mm 0,0 UV-I 0 W/m 4,9 C 4,6 C 14,0 km/h (3 Bft)
20.01.2014 01:00 6,1 C 92 % 999,9 hPa 0,0 l/m 6,6 km/h (2 Bft) O-NO 0,000 mm 0,0 UV-I 0 W/m 4,9 C 5,1 C 11,4 km/h (2 Bft)
20.01.2014 02:00 6,1 C 91 % 999,9 hPa 0,0 l/m 5,7 km/h (1 Bft) O 0,000 mm 0,0 UV-I 0 W/m 4,8 C 5,6 C 10,9 km/h (2 Bft)
20.01.2014 03:00 6,1 C 92 % 999,5 hPa 0,0 l/m 6,0 km/h (2 Bft) O-NO 0,000 mm 0,0 UV-I 0 W/m 4,9 C 5,6 C 11,2 km/h (2 Bft)
20.01.2014 04:00 6,0 C 92 % 999,2 hPa 0,0 l/m 7,5 km/h (2 Bft) O-NO 0,000 mm 0,0 UV-I 0 W/m 4,7 C 4,5 C 14,1 km/h (3 Bft)
20.01.2014 05:00 5,7 C 92 % 999,4 hPa 0,0 l/m 6,6 km/h (2 Bft) O-NO 0,000 mm 0,0 UV-I 0 W/m 4,5 C 4,8 C 11,7 km/h (2 Bft)
20.01.2014 06:00 5,7 C 91 % 999,5 hPa 0,0 l/m 7,0 km/h (2 Bft) O-NO 0,000 mm 0,0 UV-I 0 W/m 4,3 C 4,6 C 12,3 km/h (3 Bft)
20.01.2014 07:00 5,5 C 91 % 999,8 hPa 0,0 l/m 5,1 km/h (1 Bft) O-NO 0,000 mm 0,0 UV-I 0 W/m 4,1 C 5,0 C 9,5 km/h (2 Bft)
20.01.2014 08:00 5,3 C 91 % 1000,3 hPa 0,0 l/m 5,0 km/h (1 Bft) O-NO 0,000 mm 0,0 UV-I 6 W/m 4,0 C 5,1 C 9,1 km/h (2 Bft)
20.01.2014 09:00 5,4 C 91 % 1000,6 hPa 0,0 l/m 4,0 km/h (1 Bft) O-NO 0,000 mm 0,0 UV-I 16 W/m 3,9 C 5,3 C 7,3 km/h (2 Bft)
20.01.2014 10:00 5,6 C 90 % 1000,9 hPa 0,0 l/m 4,3 km/h (1 Bft) O-NO 0,000 mm 0,0 UV-I 24 W/m 4,0 C 5,4 C 7,6 km/h (2 Bft)
20.01.2014 11:00 6,0 C 88 % 1001,0 hPa 0,0 l/m 3,6 km/h (1 Bft) O 0,025 mm 0,0 UV-I 46 W/m 4,2 C 5,9 C 6,8 km/h (2 Bft)
20.01.2014 12:00 6,2 C 87 % 1000,9 hPa 0,0 l/m 2,6 km/h (1 Bft) O 0,025 mm 0,0 UV-I 37 W/m 4,2 C 6,1 C 4,9 km/h (1 Bft)
20.01.2014 13:00 6,3 C 88 % 1001,0 hPa 0,0 l/m 1,2 km/h (1 Bft) N-NO 0,025 mm 0,0 UV-I 25 W/m 4,5 C 6,3 C 2,6 km/h (1 Bft)
20.01.2014 14:00 5,9 C 90 % 1001,3 hPa 0,0 l/m 3,3 km/h (1 Bft) N 0,025 mm 0,0 UV-I 21 W/m 4,4 C 5,6 C 5,2 km/h (1 Bft)
20.01.2014 15:00 4,2 C 92 % 1001,8 hPa 0,0 l/m 7,0 km/h (2 Bft) N 0,000 mm 0,0 UV-I 11 W/m 2,9 C 3,4 C 10,3 km/h (2 Bft)
20.01.2014 16:00 3,1 C 92 % 1002,6 hPa 0,0 l/m 5,5 km/h (1 Bft) N-NW 0,000 mm 0,0 UV-I 0 W/m 1,9 C 2,8 C 8,2 km/h (2 Bft)
20.01.2014 17:00 2,1 C 93 % 1003,2 hPa 0,0 l/m 6,1 km/h (2 Bft) N-NW 0,000 mm 0,0 UV-I 0 W/m 1,0 C 1,6 C 8,9 km/h (2 Bft)
20.01.2014 18:00 1,5 C 93 % 1003,7 hPa 0,0 l/m 4,6 km/h (1 Bft) N-NW 0,000 mm 0,0 UV-I 0 W/m 0,6 C 1,5 C 6,9 km/h (2 Bft)
20.01.2014 19:00 1,3 C 93 % 1004,1 hPa 0,0 l/m 4,2 km/h (1 Bft) N-NW 0,000 mm 0,0 UV-I 0 W/m 0,3 C 1,3 C 6,6 km/h (2 Bft)
20.01.2014 20:00 0,9 C 93 % 1004,5 hPa 0,0 l/m 3,5 km/h (1 Bft) N-NW 0,000 mm 0,0 UV-I 0 W/m -0,0 C 0,9 C 5,8 km/h (2 Bft)
20.01.2014 21:00 0,7 C 93 % 1005,3 hPa 0,0 l/m 4,3 km/h (1 Bft) N-NW 0,000 mm 0,0 UV-I 0 W/m -0,3 C 0,7 C 6,8 km/h (2 Bft)
20.01.2014 22:00 0,4 C 93 % 1005,6 hPa 0,0 l/m 3,6 km/h (1 Bft) N-NW 0,000 mm 0,0 UV-I 0 W/m -0,6 C 0,4 C 6,1 km/h (2 Bft)
20.01.2014 23:00 0,4 C 93 % 1005,8 hPa 0,0 l/m 4,1 km/h (1 Bft) N-NW 0,000 mm 0,0 UV-I 0 W/m -0,6 C 0,3 C 6,3 km/h (2 Bft)
21.01.2014 00:00 0,4 C 93 % 1006,0 hPa 0,0 l/m 1,1 km/h (1 Bft) N-NW 0,000 mm 0,0 UV-I 0 W/m -0,6 C 0,4 C 2,7 km/h (1 Bft)
21.01.2014 01:00 0,4 C 93 % 1006,2 hPa 0,0 l/m 0,9 km/h (0 Bft) N-NW 0,000 mm 0,0 UV-I 0 W/m -0,6 C 0,4 C 2,2 km/h (1 Bft)
21.01.2014 02:00 0,4 C 93 % 1006,6 hPa 0,0 l/m 1,0 km/h (0 Bft) N-NW 0,000 mm 0,0 UV-I 0 W/m -0,5 C 0,4 C 2,3 km/h (1 Bft)
21.01.2014 03:00 0,3 C 93 % 1007,0 hPa 0,0 l/m 3,3 km/h (1 Bft) N-NW 0,000 mm 0,0 UV-I 0 W/m -0,7 C 0,3 C 5,6 km/h (1 Bft)
21.01.2014 04:00 0,1 C 93 % 1007,2 hPa 0,0 l/m 1,4 km/h (1 Bft) N-NW 0,000 mm 0,0 UV-I 0 W/m -0,8 C 0,1 C 2,9 km/h (1 Bft)
21.01.2014 05:00 0,1 C 94 % 1007,3 hPa 0,0 l/m 1,2 km/h (1 Bft) N-NW 0,000 mm 0,0 UV-I 0 W/m -0,8 C 0,1 C 2,6 km/h (1 Bft)
21.01.2014 06:00 0,1 C 94 % 1007,6 hPa 0,0 l/m 2,7 km/h (1 Bft) N-NW 0,000 mm 0,0 UV-I 0 W/m -0,8 C 0,1 C 4,5 km/h (1 Bft)
21.01.2014 07:00 0,0 C 94 % 1008,2 hPa 0,0 l/m 2,9 km/h (1 Bft) N-NW 0,000 mm 0,0 UV-I 0 W/m -0,9 C 0,0 C 5,0 km/h (1 Bft)
21.01.2014 08:00 -0,1 C 93 % 1008,7 hPa 0,0 l/m 2,2 km/h (1 Bft) N-NW 0,000 mm 0,0 UV-I 9 W/m -1,1 C -0,1 C 3,9 km/h (1 Bft)
21.01.2014 09:00 -0,0 C 92 % 1009,3 hPa 0,0 l/m 2,8 km/h (1 Bft) N-NW 0,000 mm 0,0 UV-I 18 W/m -1,2 C -0,0 C 4,6 km/h (1 Bft)
21.01.2014 10:00 0,1 C 92 % 1009,8 hPa 0,0 l/m 4,2 km/h (1 Bft) NW 0,000 mm 0,0 UV-I 28 W/m -1,1 C 0,1 C 5,9 km/h (2 Bft)
21.01.2014 11:00 0,1 C 93 % 1010,0 hPa 0,0 l/m 3,5 km/h (1 Bft) NW 0,000 mm 0,0 UV-I 38 W/m -0,9 C 0,1 C 5,4 km/h (1 Bft)
21.01.2014 12:00 0,3 C 94 % 1009,8 hPa 0,0 l/m 2,4 km/h (1 Bft) NW 0,025 mm 0,0 UV-I 52 W/m -0,5 C 0,3 C 3,9 km/h (1 Bft)
21.01.2014 13:00 0,8 C 93 % 1009,8 hPa 0,0 l/m 2,1 km/h (1 Bft) NW 0,025 mm 0,0 UV-I 39 W/m -0,3 C 0,8 C 3,9 km/h (1 Bft)
21.01.2014 14:00 0,9 C 91 % 1010,0 hPa 0,0 l/m 3,5 km/h (1 Bft) NW 0,025 mm 0,0 UV-I 23 W/m -0,4 C 0,8 C 5,2 km/h (1 Bft)
21.01.2014 15:00 0,9 C 90 % 1010,5 hPa 0,0 l/m 4,3 km/h (1 Bft) NW 0,000 mm 0,0 UV-I 14 W/m -0,6 C 0,8 C 6,4 km/h (2 Bft)
21.01.2014 16:00 0,7 C 91 % 1011,0 hPa 0,0 l/m 3,9 km/h (1 Bft) NW 0,000 mm 0,0 UV-I 6 W/m -0,6 C 0,4 C 6,3 km/h (2 Bft)
21.01.2014 17:00 0,5 C 92 % 1011,6 hPa 0,0 l/m 3,3 km/h (1 Bft) NW 0,000 mm 0,0 UV-I 0 W/m -0,7 C 0,5 C 5,6 km/h (1 Bft)
21.01.2014 18:00 0,3 C 92 % 1011,9 hPa 0,2 l/m 3,3 km/h (1 Bft) NW 0,000 mm 0,0 UV-I 0 W/m -0,8 C 0,3 C 5,8 km/h (2 Bft)
21.01.2014 19:00 -0,1 C 93 % 1012,2 hPa 0,0 l/m 2,0 km/h (1 Bft) NW 0,000 mm 0,0 UV-I 0 W/m -1,1 C -0,1 C 3,8 km/h (1 Bft)
21.01.2014 20:00 -0,2 C 93 % 1012,4 hPa 0,0 l/m 1,1 km/h (1 Bft) NW 0,000 mm 0,0 UV-I 0 W/m -1,2 C -0,2 C 2,3 km/h (1 Bft)
21.01.2014 21:00 -0,3 C 93 % 1012,6 hPa 0,0 l/m 0,6 km/h (0 Bft) NW 0,000 mm 0,0 UV-I 0 W/m -1,3 C -0,3 C 1,2 km/h (1 Bft)
21.01.2014 22:00 -0,2 C 93 % 1012,7 hPa 0,0 l/m 0,2 km/h (0 Bft) NW 0,000 mm 0,0 UV-I 0 W/m -1,1 C -0,2 C 0,7 km/h (0 Bft)
21.01.2014 23:00 -0,2 C 94 % 1012,9 hPa 0,0 l/m 0,2 km/h (0 Bft) NW 0,000 mm 0,0 UV-I 0 W/m -1,0 C -0,2 C 0,8 km/h (0 Bft)
22.01.2014 00:00 -0,1 C 94 % 1012,9 hPa 0,0 l/m 0,1 km/h (0 Bft) NW 0,000 mm 0,0 UV-I 0 W/m -0,9 C -0,1 C 0,3 km/h (0 Bft)
22.01.2014 01:00 -0,1 C 94 % 1012,8 hPa 0,0 l/m 0,0 km/h (0 Bft) N 0,000 mm 0,0 UV-I 0 W/m -0,9 C -0,1 C 0,0 km/h (0 Bft)
22.01.2014 02:00 -0,1 C 94 % 1012,7 hPa 0,0 l/m 0,0 km/h (0 Bft) N 0,000 mm 0,0 UV-I 0 W/m -0,9 C -0,1 C 0,1 km/h (0 Bft)
22.01.2014 03:00 0,0 C 95 % 1012,8 hPa 0,0 l/m 0,0 km/h (0 Bft) N 0,000 mm 0,0 UV-I 0 W/m -0,7 C 0,0 C 0,1 km/h (0 Bft)
22.01.2014 04:00 0,2 C 96 % 1012,8 hPa 0,0 l/m 0,1 km/h (0 Bft) NW 0,000 mm 0,0 UV-I 0 W/m -0,4 C 0,2 C 0,5 km/h (0 Bft)
22.01.2014 05:00 0,3 C 96 % 1012,8 hPa 0,0 l/m 0,0 km/h (0 Bft) N 0,000 mm 0,0 UV-I 0 W/m -0,3 C 0,3 C 0,1 km/h (0 Bft)
22.01.2014 06:00 0,4 C 96 % 1012,9 hPa 0,0 l/m 0,1 km/h (0 Bft) NW 0,000 mm 0,0 UV-I 0 W/m -0,2 C 0,4 C 0,3 km/h (0 Bft)
22.01.2014 07:00 0,5 C 96 % 1013,0 hPa 0,0 l/m 0,1 km/h (0 Bft) NW 0,000 mm 0,0 UV-I 0 W/m -0,1 C 0,5 C 0,5 km/h (0 Bft)
22.01.2014 08:00 0,6 C 96 % 1013,3 hPa 0,0 l/m 0,0 km/h (0 Bft) N 0,000 mm 0,0 UV-I 6 W/m 0,0 C 0,6 C 0,2 km/h (0 Bft)
22.01.2014 09:00 0,7 C 96 % 1013,5 hPa 0,0 l/m 0,1 km/h (0 Bft) NW 0,000 mm 0,0 UV-I 15 W/m 0,1 C 0,7 C 0,5 km/h (0 Bft)
22.01.2014 10:00 1,0 C 96 % 1013,8 hPa 0,0 l/m 0,1 km/h (0 Bft) NW 0,000 mm 0,0 UV-I 34 W/m 0,4 C 1,0 C 0,5 km/h (0 Bft)
22.01.2014 11:00 1,5 C 94 % 1013,9 hPa 0,4 l/m 0,3 km/h (0 Bft) NW 0,000 mm 0,0 UV-I 61 W/m 0,6 C 1,5 C 1,0 km/h (0 Bft)
22.01.2014 12:00 1,8 C 92 % 1013,6 hPa 0,2 l/m 0,4 km/h (0 Bft) NW 0,025 mm 0,0 UV-I 54 W/m 0,7 C 1,8 C 1,4 km/h (1 Bft)
22.01.2014 13:00 2,1 C 91 % 1013,3 hPa 0,2 l/m 0,8 km/h (0 Bft) NW 0,025 mm 0,0 UV-I 36 W/m 0,8 C 2,1 C 1,8 km/h (1 Bft)
22.01.2014 14:00 2,2 C 92 % 1013,3 hPa 0,2 l/m 0,2 km/h (0 Bft) NW 0,025 mm 0,0 UV-I 42 W/m 1,0 C 2,2 C 1,0 km/h (0 Bft)
22.01.2014 15:00 2,0 C 93 % 1013,6 hPa 0,0 l/m 0,0 km/h (0 Bft) NW 0,025 mm 0,0 UV-I 14 W/m 1,0 C 2,0 C 0,5 km/h (0 Bft)
22.01.2014 16:00 1,9 C 94 % 1014,0 hPa 0,0 l/m 0,8 km/h (0 Bft) NW 0,000 mm 0,0 UV-I 8 W/m 1,0 C 1,9 C 2,1 km/h (1 Bft)
22.01.2014 17:00 1,8 C 94 % 1014,4 hPa 0,0 l/m 0,5 km/h (0 Bft) NW 0,000 mm 0,0 UV-I 0 W/m 0,9 C 1,8 C 1,2 km/h (1 Bft)
22.01.2014 18:00 1,7 C 94 % 1014,7 hPa 0,2 l/m 1,1 km/h (1 Bft) NW 0,000 mm 0,0 UV-I 0 W/m 0,8 C 1,7 C 2,1 km/h (1 Bft)
22.01.2014 19:00 1,6 C 95 % 1014,9 hPa 0,0 l/m 1,1 km/h (0 Bft) NW 0,000 mm 0,0 UV-I 0 W/m 0,9 C 1,6 C 2,1 km/h (1 Bft)
22.01.2014 20:00 1,5 C 95 % 1015,2 hPa 0,0 l/m 0,2 km/h (0 Bft) NW 0,000 mm 0,0 UV-I 0 W/m 0,7 C 1,5 C 0,6 km/h (0 Bft)
22.01.2014 21:00 1,5 C 95 % 1015,4 hPa 0,0 l/m 1,0 km/h (0 Bft) NW 0,000 mm 0,0 UV-I 0 W/m 0,8 C 1,5 C 1,9 km/h (1 Bft)
22.01.2014 22:00 1,4 C 95 % 1015,5 hPa 0,0 l/m 0,0 km/h (0 Bft) N 0,000 mm 0,0 UV-I 0 W/m 0,7 C 1,4 C 0,1 km/h (0 Bft)
22.01.2014 23:00 1,5 C 96 % 1015,6 hPa 0,0 l/m 0,0 km/h (0 Bft) NW 0,000 mm 0,0 UV-I 0 W/m 0,9 C 1,5 C 0,4 km/h (0 Bft)
23.01.2014 00:00 1,5 C 96 % 1015,8 hPa 0,0 l/m 0,2 km/h (0 Bft) NW 0,000 mm 0,0 UV-I 0 W/m 0,9 C 1,5 C 0,9 km/h (0 Bft)
23.01.2014 01:00 1,3 C 97 % 1015,7 hPa 0,0 l/m 0,9 km/h (0 Bft) NW 0,000 mm 0,0 UV-I 0 W/m 0,9 C 1,3 C 1,8 km/h (1 Bft)
23.01.2014 02:00 1,2 C 97 % 1015,8 hPa 0,0 l/m 0,7 km/h (0 Bft) NW 0,000 mm 0,0 UV-I 0 W/m 0,8 C 1,2 C 1,4 km/h (1 Bft)
23.01.2014 03:00 1,2 C 97 % 1015,9 hPa 0,0 l/m 0,3 km/h (0 Bft) NW 0,000 mm 0,0 UV-I 0 W/m 0,8 C 1,2 C 0,8 km/h (0 Bft)
23.01.2014 04:00 1,2 C 97 % 1016,0 hPa 0,0 l/m 0,4 km/h (0 Bft) NW 0,000 mm 0,0 UV-I 0 W/m 0,8 C 1,2 C 0,9 km/h (0 Bft)
23.01.2014 05:00 1,1 C 97 % 1016,1 hPa 0,0 l/m 0,0 km/h (0 Bft) NW 0,000 mm 0,0 UV-I 0 W/m 0,7 C 1,1 C 0,3 km/h (0 Bft)
23.01.2014 06:00 1,0 C 97 % 1016,0 hPa 0,2 l/m 0,0 km/h (0 Bft) N 0,000 mm 0,0 UV-I 0 W/m 0,6 C 1,0 C 0,0 km/h (0 Bft)
23.01.2014 07:00 1,0 C 97 % 1016,1 hPa 0,0 l/m 0,0 km/h (0 Bft) N 0,000 mm 0,0 UV-I 0 W/m 0,6 C 1,0 C 0,0 km/h (0 Bft)
23.01.2014 08:00 1,1 C 97 % 1016,4 hPa 0,0 l/m 0,0 km/h (0 Bft) N 0,000 mm 0,0 UV-I 7 W/m 0,7 C 1,1 C 0,0 km/h (0 Bft)
23.01.2014 09:00 1,2 C 97 % 1016,8 hPa 0,0 l/m 0,0 km/h (0 Bft) N 0,000 mm 0,0 UV-I 15 W/m 0,8 C 1,2 C 0,0 km/h (0 Bft)
23.01.2014 10:00 1,5 C 97 % 1017,2 hPa 0,0 l/m 0,4 km/h (0 Bft) NW 0,000 mm 0,0 UV-I 37 W/m 1,1 C 1,5 C 1,1 km/h (1 Bft)
23.01.2014 11:00 2,0 C 96 % 1017,0 hPa 0,0 l/m 1,4 km/h (1 Bft) NW 0,025 mm 0,0 UV-I 38 W/m 1,3 C 2,0 C 2,9 km/h (1 Bft)
23.01.2014 12:00 2,3 C 95 % 1016,5 hPa 0,0 l/m 2,0 km/h (1 Bft) NW 0,025 mm 0,0 UV-I 49 W/m 1,6 C 2,3 C 3,4 km/h (1 Bft)
23.01.2014 13:00 2,6 C 93 % 1016,1 hPa 0,0 l/m 4,2 km/h (1 Bft) NW 0,025 mm 0,0 UV-I 45 W/m 1,6 C 2,6 C 6,2 km/h (2 Bft)
23.01.2014 14:00 2,7 C 93 % 1015,7 hPa 0,0 l/m 1,5 km/h (1 Bft) NW 0,025 mm 0,0 UV-I 35 W/m 1,6 C 2,7 C 2,7 km/h (1 Bft)
23.01.2014 15:00 2,8 C 91 % 1015,5 hPa 0,0 l/m 2,7 km/h (1 Bft) NW 0,025 mm 0,0 UV-I 11 W/m 1,5 C 2,8 C 4,5 km/h (1 Bft)
23.01.2014 16:00 2,4 C 92 % 1015,4 hPa 0,0 l/m 2,8 km/h (1 Bft) NW 0,000 mm 0,0 UV-I 5 W/m 1,2 C 2,4 C 4,8 km/h (1 Bft)
23.01.2014 17:00 1,8 C 92 % 1015,2 hPa 0,0 l/m 2,7 km/h (1 Bft) NW 0,000 mm 0,0 UV-I 0 W/m 0,7 C 1,8 C 5,0 km/h (1 Bft)
23.01.2014 18:00 1,6 C 93 % 1015,0 hPa 0,0 l/m 3,4 km/h (1 Bft) SO 0,000 mm 0,0 UV-I 0 W/m 0,5 C 1,6 C 5,8 km/h (2 Bft)
23.01.2014 19:00 1,2 C 93 % 1014,7 hPa 0,0 l/m 2,1 km/h (1 Bft) O-SO 0,000 mm 0,0 UV-I 0 W/m 0,3 C 1,2 C 4,1 km/h (1 Bft)
23.01.2014 20:00 1,2 C 93 % 1014,0 hPa 0,0 l/m 6,0 km/h (2 Bft) SO 0,000 mm 0,0 UV-I 0 W/m 0,2 C 0,5 C 9,1 km/h (2 Bft)
23.01.2014 21:00 1,1 C 94 % 1013,6 hPa 0,2 l/m 6,2 km/h (2 Bft) SO 0,000 mm 0,0 UV-I 0 W/m 0,3 C 0,6 C 9,4 km/h (2 Bft)
23.01.2014 22:00 1,0 C 95 % 1013,3 hPa 0,4 l/m 4,2 km/h (1 Bft) SO 0,000 mm 0,0 UV-I 0 W/m 0,3 C 0,8 C 6,6 km/h (2 Bft)
23.01.2014 23:00 1,6 C 96 % 1013,0 hPa 0,2 l/m 4,4 km/h (1 Bft) W-SW 0,000 mm 0,0 UV-I 0 W/m 1,0 C 1,3 C 7,3 km/h (2 Bft)
24.01.2014 00:00 1,8 C 95 % 1012,7 hPa 0,0 l/m 2,8 km/h (1 Bft) W-SW 0,000 mm 0,0 UV-I 0 W/m 1,1 C 1,8 C 5,0 km/h (1 Bft)
24.01.2014 01:00 1,7 C 95 % 1012,1 hPa 0,2 l/m 1,7 km/h (1 Bft) W-SW 0,000 mm 0,0 UV-I 0 W/m 1,0 C 1,7 C 2,9 km/h (1 Bft)
24.01.2014 02:00 1,5 C 95 % 1011,8 hPa 0,0 l/m 2,1 km/h (1 Bft) S-SO 0,000 mm 0,0 UV-I 0 W/m 0,9 C 1,5 C 3,5 km/h (1 Bft)
24.01.2014 03:00 1,4 C 95 % 1011,7 hPa 0,0 l/m 1,9 km/h (1 Bft) S-SO 0,000 mm 0,0 UV-I 0 W/m 0,7 C 1,4 C 3,4 km/h (1 Bft)
24.01.2014 04:00 1,4 C 95 % 1011,5 hPa 0,0 l/m 1,5 km/h (1 Bft) O-NO 0,000 mm 0,0 UV-I 0 W/m 0,7 C 1,4 C 2,8 km/h (1 Bft)
24.01.2014 05:00 1,0 C 95 % 1011,5 hPa 0,0 l/m 3,0 km/h (1 Bft) O-NO 0,000 mm 0,0 UV-I 0 W/m 0,3 C 1,0 C 4,9 km/h (1 Bft)
24.01.2014 06:00 0,3 C 94 % 1011,5 hPa 0,0 l/m 2,2 km/h (1 Bft) O-NO 0,000 mm 0,0 UV-I 0 W/m -0,5 C 0,3 C 3,7 km/h (1 Bft)
24.01.2014 07:00 -0,1 C 95 % 1011,8 hPa 0,0 l/m 2,3 km/h (1 Bft) O 0,000 mm 0,0 UV-I 0 W/m -0,8 C -0,1 C 4,3 km/h (1 Bft)
24.01.2014 08:00 0,1 C 95 % 1012,6 hPa 0,0 l/m 2,5 km/h (1 Bft) O-NO 0,000 mm 0,0 UV-I 17 W/m -0,6 C 0,1 C 4,5 km/h (1 Bft)
24.01.2014 09:00 0,6 C 94 % 1013,2 hPa 0,0 l/m 2,6 km/h (1 Bft) O 0,000 mm 0,0 UV-I 47 W/m -0,3 C 0,6 C 4,7 km/h (1 Bft)
24.01.2014 10:00 1,1 C 93 % 1013,6 hPa 0,0 l/m 0,6 km/h (0 Bft) O-NO 0,025 mm 0,0 UV-I 49 W/m -0,0 C 1,1 C 1,8 km/h (1 Bft)
24.01.2014 11:00 1,6 C 91 % 1013,8 hPa 0,0 l/m 0,9 km/h (0 Bft) O-SO 0,025 mm 0,0 UV-I 88 W/m 0,3 C 1,6 C 2,2 km/h (1 Bft)
24.01.2014 12:00 2,3 C 90 % 1013,7 hPa 0,0 l/m 1,9 km/h (1 Bft) N-NO 0,025 mm 0,0 UV-I 93 W/m 0,9 C 2,3 C 3,9 km/h (1 Bft)
24.01.2014 13:00 2,5 C 90 % 1013,7 hPa 0,0 l/m 1,7 km/h (1 Bft) O-NO 0,025 mm 0,0 UV-I 77 W/m 1,0 C 2,5 C 3,5 km/h (1 Bft)
24.01.2014 14:00 2,6 C 90 % 1013,9 hPa 0,0 l/m 1,6 km/h (1 Bft) N-NO 0,025 mm 0,0 UV-I 48 W/m 1,1 C 2,6 C 3,2 km/h (1 Bft)
24.01.2014 15:00 1,9 C 92 % 1014,4 hPa 0,0 l/m 4,7 km/h (1 Bft) N-NO 0,025 mm 0,0 UV-I 16 W/m 0,7 C 1,8 C 7,3 km/h (2 Bft)
24.01.2014 16:00 1,4 C 93 % 1014,9 hPa 0,0 l/m 4,0 km/h (1 Bft) N 0,000 mm 0,0 UV-I 7 W/m 0,3 C 1,4 C 6,0 km/h (2 Bft)
24.01.2014 17:00 0,9 C 93 % 1015,6 hPa 0,0 l/m 4,5 km/h (1 Bft) N 0,000 mm 0,0 UV-I 0 W/m -0,0 C 0,8 C 6,3 km/h (2 Bft)
24.01.2014 18:00 0,9 C 94 % 1016,3 hPa 0,0 l/m 3,9 km/h (1 Bft) N 0,000 mm 0,0 UV-I 0 W/m 0,0 C 0,9 C 6,1 km/h (2 Bft)
24.01.2014 19:00 0,8 C 93 % 1016,7 hPa 0,0 l/m 5,9 km/h (2 Bft) N 0,000 mm 0,0 UV-I 0 W/m -0,2 C 0,2 C 9,2 km/h (2 Bft)
24.01.2014 20:00 0,5 C 93 % 1017,2 hPa 0,0 l/m 4,7 km/h (1 Bft) N 0,000 mm 0,0 UV-I 0 W/m -0,5 C 0,1 C 7,6 km/h (2 Bft)
24.01.2014 21:00 0,2 C 93 % 1017,7 hPa 0,0 l/m 4,9 km/h (1 Bft) N 0,000 mm 0,0 UV-I 0 W/m -0,9 C -0,4 C 7,9 km/h (2 Bft)
24.01.2014 22:00 -0,3 C 92 % 1017,7 hPa 0,0 l/m 4,5 km/h (1 Bft) N 0,000 mm 0,0 UV-I 0 W/m -1,4 C -0,4 C 7,3 km/h (2 Bft)
24.01.2014 23:00 -0,8 C 92 % 1017,8 hPa 0,0 l/m 6,9 km/h (2 Bft) N-NO 0,000 mm 0,0 UV-I 0 W/m -1,9 C -1,9 C 10,4 km/h (2 Bft)
25.01.2014 00:00 -1,2 C 92 % 1018,0 hPa 0,0 l/m 5,9 km/h (2 Bft) N 0,000 mm 0,0 UV-I 0 W/m -2,3 C -1,7 C 8,9 km/h (2 Bft)
25.01.2014 01:00 -1,6 C 92 % 1018,0 hPa 0,0 l/m 6,1 km/h (2 Bft) N 0,000 mm 0,0 UV-I 0 W/m -2,7 C -2,3 C 9,3 km/h (2 Bft)
25.01.2014 02:00 -1,8 C 92 % 1018,2 hPa 0,0 l/m 3,0 km/h (1 Bft) N 0,000 mm 0,0 UV-I 0 W/m -2,9 C -1,8 C 5,5 km/h (1 Bft)
25.01.2014 03:00 -2,0 C 91 % 1018,5 hPa 0,0 l/m 5,2 km/h (1 Bft) N 0,000 mm 0,0 UV-I 0 W/m -3,2 C -2,2 C 8,4 km/h (2 Bft)
25.01.2014 04:00 -2,6 C 90 % 1019,0 hPa 0,0 l/m 6,0 km/h (2 Bft) NW 0,000 mm 0,0 UV-I 0 W/m -3,9 C -3,3 C 9,7 km/h (2 Bft)
25.01.2014 05:00 -3,0 C 91 % 1019,2 hPa 0,0 l/m 5,1 km/h (1 Bft) NW 0,000 mm 0,0 UV-I 0 W/m -4,3 C -3,3 C 7,7 km/h (2 Bft)
25.01.2014 06:00 -3,1 C 90 % 1019,5 hPa 0,0 l/m 7,0 km/h (2 Bft) NW 0,000 mm 0,0 UV-I 0 W/m -4,5 C -4,3 C 10,4 km/h (2 Bft)
25.01.2014 07:00 -3,5 C 90 % 1019,6 hPa 0,0 l/m 6,0 km/h (2 Bft) N 0,000 mm 0,0 UV-I 0 W/m -5,0 C -4,2 C 9,3 km/h (2 Bft)
25.01.2014 08:00 -3,7 C 90 % 1019,7 hPa 0,0 l/m 5,4 km/h (1 Bft) N 0,000 mm 0,0 UV-I 13 W/m -5,1 C -4,0 C 8,6 km/h (2 Bft)
25.01.2014 09:00 -3,7 C 90 % 1019,8 hPa 0,0 l/m 5,7 km/h (1 Bft) N 0,000 mm 0,0 UV-I 40 W/m -5,0 C -4,1 C 8,7 km/h (2 Bft)
25.01.2014 10:00 -3,2 C 89 % 1019,9 hPa 0,0 l/m 4,3 km/h (1 Bft) N 0,025 mm 0,0 UV-I 76 W/m -4,7 C -3,3 C 6,9 km/h (2 Bft)
25.01.2014 11:00 -2,5 C 88 % 1019,7 hPa 0,0 l/m 6,3 km/h (2 Bft) N 0,026 mm 0,0 UV-I 138 W/m -4,2 C -3,4 C 9,5 km/h (2 Bft)
25.01.2014 12:00 -1,7 C 85 % 1019,1 hPa 0,0 l/m 4,9 km/h (1 Bft) N 0,051 mm 0,0 UV-I 145 W/m -3,9 C -1,8 C 7,7 km/h (2 Bft)
25.01.2014 13:00 -1,7 C 85 % 1018,5 hPa 0,0 l/m 6,5 km/h (2 Bft) N 0,051 mm 0,0 UV-I 120 W/m -4,0 C -2,5 C 10,0 km/h (2 Bft)
25.01.2014 14:00 -2,3 C 85 % 1018,3 hPa 0,0 l/m 6,1 km/h (2 Bft) N 0,051 mm 0,0 UV-I 78 W/m -4,5 C -2,8 C 9,0 km/h (2 Bft)
25.01.2014 15:00 -2,8 C 85 % 1018,4 hPa 0,0 l/m 5,4 km/h (1 Bft) N 0,025 mm 0,0 UV-I 38 W/m -5,0 C -3,3 C 8,1 km/h (2 Bft)
25.01.2014 16:00 -3,6 C 85 % 1018,8 hPa 0,0 l/m 5,7 km/h (1 Bft) N 0,025 mm 0,0 UV-I 17 W/m -5,7 C -4,0 C 8,4 km/h (2 Bft)
25.01.2014 17:00 -4,2 C 87 % 1018,8 hPa 0,0 l/m 5,0 km/h (1 Bft) N 0,000 mm 0,0 UV-I 0 W/m -6,0 C -4,6 C 7,2 km/h (2 Bft)
25.01.2014 18:00 -4,7 C 88 % 1018,5 hPa 0,0 l/m 5,6 km/h (1 Bft) N 0,000 mm 0,0 UV-I 0 W/m -6,4 C -5,3 C 8,0 km/h (2 Bft)
25.01.2014 19:00 -5,2 C 90 % 1018,0 hPa 0,0 l/m 3,4 km/h (1 Bft) N 0,000 mm 0,0 UV-I 0 W/m -6,7 C -5,3 C 5,2 km/h (1 Bft)
25.01.2014 20:00 -5,3 C 91 % 1017,2 hPa 0,0 l/m 0,8 km/h (0 Bft) N 0,000 mm 0,0 UV-I 0 W/m -6,6 C -5,3 C 1,6 km/h (1 Bft)
25.01.2014 21:00 -5,1 C 91 % 1016,7 hPa 0,0 l/m 0,5 km/h (0 Bft) N 0,000 mm 0,0 UV-I 0 W/m -6,3 C -5,1 C 1,3 km/h (1 Bft)
25.01.2014 22:00 -4,8 C 92 % 1015,1 hPa 0,0 l/m 1,2 km/h (1 Bft) N 0,000 mm 0,0 UV-I 0 W/m -5,9 C -4,8 C 2,4 km/h (1 Bft)
25.01.2014 23:00 -4,2 C 91 % 1013,8 hPa 0,0 l/m 0,7 km/h (0 Bft) N 0,000 mm 0,0 UV-I 0 W/m -5,4 C -4,2 C 1,7 km/h (1 Bft)
26.01.2014 00:00 -3,4 C 91 % 1011,8 hPa 0,0 l/m 1,6 km/h (1 Bft) N 0,000 mm 0,0 UV-I 0 W/m -4,7 C -3,4 C 3,3 km/h (1 Bft)
26.01.2014 01:00 -2,9 C 89 % 1010,5 hPa 0,0 l/m 2,3 km/h (1 Bft) N 0,000 mm 0,0 UV-I 0 W/m -4,5 C -2,9 C 4,4 km/h (1 Bft)
26.01.2014 02:00 -3,2 C 91 % 1009,2 hPa 0,0 l/m 3,0 km/h (1 Bft) N 0,000 mm 0,0 UV-I 0 W/m -4,5 C -3,3 C 5,6 km/h (1 Bft)
26.01.2014 03:00 -4,0 C 93 % 1008,5 hPa 0,0 l/m 2,9 km/h (1 Bft) O 0,000 mm 0,0 UV-I 0 W/m -5,0 C -4,0 C 5,8 km/h (2 Bft)
26.01.2014 04:00 -4,4 C 92 % 1008,5 hPa 0,0 l/m 4,7 km/h (1 Bft) O 0,000 mm 0,0 UV-I 0 W/m -5,5 C -4,6 C 8,3 km/h (2 Bft)
26.01.2014 05:00 -4,6 C 91 % 1008,7 hPa 0,0 l/m 4,9 km/h (1 Bft) O 0,000 mm 0,0 UV-I 0 W/m -5,8 C -4,8 C 8,9 km/h (2 Bft)
26.01.2014 06:00 -4,6 C 90 % 1009,2 hPa 0,0 l/m 5,0 km/h (1 Bft) O 0,000 mm 0,0 UV-I 0 W/m -6,0 C -4,7 C 9,3 km/h (2 Bft)
26.01.2014 07:00 -4,6 C 89 % 1009,6 hPa 0,0 l/m 4,7 km/h (1 Bft) O 0,000 mm 0,0 UV-I 0 W/m -6,1 C -4,8 C 8,4 km/h (2 Bft)
26.01.2014 08:00 -4,3 C 89 % 1010,0 hPa 0,0 l/m 3,3 km/h (1 Bft) O-NO 0,000 mm 0,0 UV-I 7 W/m -5,9 C -4,3 C 6,0 km/h (2 Bft)
26.01.2014 09:00 -3,8 C 88 % 1010,4 hPa 0,0 l/m 1,6 km/h (1 Bft) O-NO 0,000 mm 0,0 UV-I 15 W/m -5,5 C -3,8 C 3,6 km/h (1 Bft)
26.01.2014 10:00 -3,4 C 87 % 1010,8 hPa 0,0 l/m 1,9 km/h (1 Bft) O-NO 0,000 mm 0,0 UV-I 25 W/m -5,2 C -3,4 C 3,9 km/h (1 Bft)
26.01.2014 11:00 -2,9 C 87 % 1011,0 hPa 0,0 l/m 0,9 km/h (0 Bft) O-NO 0,000 mm 0,0 UV-I 22 W/m -4,9 C -2,9 C 2,1 km/h (1 Bft)
26.01.2014 12:00 -2,8 C 87 % 1010,6 hPa 0,0 l/m 0,4 km/h (0 Bft) S-SO 0,000 mm 0,0 UV-I 20 W/m -4,7 C -2,8 C 1,1 km/h (1 Bft)
26.01.2014 13:00 -2,7 C 89 % 1010,3 hPa 0,0 l/m 0,2 km/h (0 Bft) W-NW 0,000 mm 0,0 UV-I 19 W/m -4,2 C -2,7 C 1,0 km/h (0 Bft)
26.01.2014 14:00 -2,6 C 92 % 1010,1 hPa 0,0 l/m 0,2 km/h (0 Bft) W-NW 0,000 mm 0,0 UV-I 15 W/m -3,8 C -2,6 C 0,7 km/h (0 Bft)
26.01.2014 15:00 -2,5 C 93 % 1010,2 hPa 0,0 l/m 0,4 km/h (0 Bft) W-SW 0,000 mm 0,0 UV-I 11 W/m -3,5 C -2,5 C 1,0 km/h (0 Bft)
26.01.2014 16:00 -2,2 C 94 % 1009,8 hPa 0,0 l/m 0,2 km/h (0 Bft) S-SO 0,000 mm 0,0 UV-I 5 W/m -3,1 C -2,2 C 0,5 km/h (0 Bft)
26.01.2014 17:00 -1,5 C 96 % 1009,5 hPa 0,0 l/m 1,9 km/h (1 Bft) S-SO 0,000 mm 0,0 UV-I 0 W/m -2,1 C -1,5 C 3,3 km/h (1 Bft)
26.01.2014 18:00 0,1 C 96 % 1008,7 hPa 0,0 l/m 5,1 km/h (1 Bft) W-SW 0,000 mm 0,0 UV-I 0 W/m -0,5 C -0,1 C 8,4 km/h (2 Bft)
26.01.2014 19:00 0,3 C 94 % 1007,9 hPa 0,0 l/m 2,9 km/h (1 Bft) S 0,000 mm 0,0 UV-I 0 W/m -0,5 C 0,3 C 5,1 km/h (1 Bft)
26.01.2014 20:00 -0,2 C 94 % 1006,8 hPa 0,0 l/m 4,2 km/h (1 Bft) S-SO 0,000 mm 0,0 UV-I 0 W/m -1,0 C -0,2 C 6,3 km/h (2 Bft)
26.01.2014 21:00 -0,6 C 94 % 1005,5 hPa 0,0 l/m 4,6 km/h (1 Bft) S-SO 0,000 mm 0,0 UV-I 0 W/m -1,5 C -0,6 C 6,6 km/h (2 Bft)
26.01.2014 22:00 -0,9 C 93 % 1004,0 hPa 0,0 l/m 3,9 km/h (1 Bft) SO 0,000 mm 0,0 UV-I 0 W/m -1,9 C -0,9 C 5,9 km/h (2 Bft)
26.01.2014 23:00 -0,7 C 91 % 1002,7 hPa 0,0 l/m 4,7 km/h (1 Bft) SO 0,000 mm 0,0 UV-I 0 W/m -2,1 C -0,8 C 7,2 km/h (2 Bft)
Min-Datum _ 25.01.14 25.01.14 20.01.14 - 20.01.14 - - - - 25.01.14 25.01.14 20.01.14
_ Min-Zeit 19:30 12:25 03:59 - 01:30 - - - - 19:30 09:00 07:55
Minimum _ -5,3 C 84 % 999,1 hPa - 0,0 km/h (0 Bft) - - - - -6,8 C -8,8 C 0,0 km/h (0 Bft)
Max-Datum _ 20.01.14 23.01.14 25.01.14 22.01.14 20.01.14 - 25.01.14 20.01.14 25.01.14 20.01.14 20.01.14 20.01.14
_ Max-Zeit 13:22 00:54 10:31 11:35 00:27 - 12:00 00:00 11:49 00:36 00:03 03:59
Maximum _ 6,4 C 97 % 1020,0 hPa 0,4 l/m 14,5 km/h
O-NO (3 Bft)
- 0,051 mm 0,0 UV-I 271 W/m 5,0 C 6,3 C 27,4 km/h
O-NO (4 Bft)
Durchschnitt _ 0,3 C 92 % 1011,7 hPa #2,6 l/m 2,8 km/h (1 Bft) N #0,804 mm 0,0 UV-I 35 W/m -0,7 C 0,2 C 4,8 km/h (1 Bft)